Tracking 30995 objects as of 5-Jul-2025
HD Live streaming from Space Station
objects crossing your sky now

STARLINK-4679

Track STARLINK-4679 now!
10-day predictions
STARLINK-4679 is classified as:


NORAD ID: 53782
Int'l Code: 2022-111K
Perigee: 546.0 km
Apogee: 547.7 km
Inclination: 53.2 °
Period: 95.4 minutes
Semi major axis: 6917 km
RCS: Unknown
Launch date: September 11, 2022
Source: United States (US)
Launch site: AIR FORCE EASTERN TEST RANGE (AFETR)
Your satellite tracking list
Your tracking list is empty




NASA's NSSDC Master Catalog

Two Line Element Set (TLE):
1 53782U 22111K   25186.53849072 -.00000727  00000-0 -27575-4 0  9990
2 53782  53.2192 303.7023 0001218  89.3450 270.7681 15.08838820156385
Source of the keplerian elements: AFSPC